DW8587 Weather Reports


time (UTC)temp
C
wind
direction
speed
KPH
gust
KPH
rain 1hr
cm
rain 24hr
cm
rain mn
cm
humidity
%
barometer
mb
20260507014538 11 42 4.8 12.9 0.00 1.93 0.03 91 1011.0
20260507013025 11 22 1.6 4.8 0.00 1.93 0.03 91 1011.0
20260507011528 11 54 6.4 14.5 0.00 1.93 0.03 90 1010.8
20260507010023 11 32 0.0 4.8 0.03 1.93 0.03 90 1010.9
20260507004524 11 327 3.2 4.8 0.03 1.93 0.03 90 1010.9
20260507003021 11 355 3.2 12.9 0.03 1.93 0.03 90 1010.7
20260507001525 11 19 11.3 19.3 0.03 1.93 0.03 90 1010.7
20260507000026 11 35 8.0 16.1 0.00 1.93 0.00 90 1010.7
20260506234516 11 331 6.4 16.1 0.00 1.93 0.00 89 1010.7
20260506233015 11 30 3.2 9.7 0.00 1.93 0.00 88 1010.7
20260506231514 11 355 4.8 9.7 0.00 1.93 0.00 88 1010.7
20260506230012 11 57 4.8 17.7 0.00 1.93 0.00 88 1010.5
20260506224512 11 29 9.7 22.5 0.00 1.93 0.00 88 1010.5
20260506223009 11 42 14.5 22.5 0.00 1.93 0.00 89 1010.4
20260506221506 11 346 6.4 9.7 0.00 1.93 0.00 90 1010.4
20260506220014 11 348 6.4 14.5 0.00 1.93 0.00 90 1010.4
20260506214503 11 20 4.8 11.3 0.00 2.03 1.93 90 1010.3
20260506213002 11 25 6.4 19.3 0.00 2.03 1.93 91 1010.2
20260506211507 11 37 6.4 9.7 0.00 2.03 1.93 91 1010.3
20260506210005 11 346 6.4 12.9 0.00 2.03 1.93 92 1010.4
20260506204501 11 342 1.6 6.4 0.00 2.13 1.93 91 1010.2
20260506203100 11 42 3.2 8.0 0.00 2.13 1.93 91 1010.0
20260506201559 11 36 4.8 12.9 0.00 2.13 1.93 91 1010.0
20260506200059 11 35 3.2 8.0 0.00 2.13 1.93 92 1009.8
20260506194633 11 24 1.6 6.4 0.00 2.16 1.93 92 1009.6
20260506193105 11 38 3.2 6.4 0.00 2.16 1.93 91 1009.4
20260506191555 11 228 1.6 3.2 0.00 2.16 1.93 91 1009.4
20260506190101 11 15 1.6 8.0 0.10 2.16 1.93 90 1008.9
20260506184555 11 360 6.4 11.3 0.28 2.31 1.93 89 1008.4
20260506183053 12 125 8.0 19.3 0.38 2.31 1.93 89 1007.8
20260506181553 12 115 1.6 24.1 0.51 2.31 1.93 89 1007.5
20260506174553 12 202 6.4 9.7 0.23 2.13 1.63 87 1008.5
20260506173056 13 5 1.6 8.0 0.15 2.06 1.55 85 1007.9
20260506171556 13 38 12.9 25.7 0.05 1.93 1.42 82 1007.7
20260506164548 13 34 6.4 17.7 0.00 2.16 1.37 83 1007.2
20260506163107 14 360 1.6 3.2 0.00 2.16 1.37 84 1006.9
20260506161547 13 350 6.4 20.9 0.00 2.16 1.37 82 1006.7
20260506160047 13 36 11.3 22.5 0.00 2.16 1.37 82 1006.2
20260506154606 13 26 12.9 24.1 0.00 2.18 1.37 83 1006.2
20260506153050 13 33 16.1 24.1 0.00 2.18 1.37 83 1006.5
20260506151543 14 39 14.5 22.5 0.13 2.18 1.37 84 1006.7
20260506150042 13 42 14.5 22.5 0.13 2.18 1.37 86 1006.7
20260506144542 13 25 12.9 25.7 0.13 2.21 1.37 89 1006.8
20260506143048 13 11 3.2 11.3 0.15 2.21 1.37 91 1007.3
20260506141542 13 22 14.5 19.3 0.05 2.08 1.27 90 1007.2
20260506140040 13 33 6.4 22.5 0.48 2.08 1.27 91 1007.0
20260506134539 12 346 6.4 16.1 0.94 2.08 1.27 93 1006.9
20260506133040 12 28 6.4 14.5 0.99 2.06 1.24 93 1007.2
20260506131537 12 349 11.3 19.3 0.97 2.03 1.22 92 1007.3
20260506130035 12 328 9.7 30.6 0.51 1.57 0.76 88 1007.3
20260506124533 15 34 1.6 9.7 0.05 1.17 0.33 87 1007.0
20260506123034 16 138 9.7 17.7 0.00 1.09 0.25 85 1007.0
20260506121538 16 115 9.7 22.5 0.00 1.09 0.25 85 1006.8
20260506120031 16 119 14.5 27.4 0.00 1.09 0.25 83 1006.7
20260506114533 16 160 6.4 14.5 0.00 1.17 0.25 86 1006.8
20260506113026 15 113 6.4 12.9 0.00 1.17 0.25 86 1006.9
20260506111525 15 133 17.7 27.4 0.00 1.17 0.25 86 1006.9
20260506110025 15 149 9.7 30.6 0.00 1.17 0.25 87 1006.9
20260506104520 14 162 12.9 25.7 0.03 1.30 0.25 89 1007.1
20260506103017 14 137 12.9 19.3 0.03 1.30 0.25 89 1007.2
20260506101517 14 126 12.9 24.1 0.03 1.30 0.25 90 1007.2
20260506100017 14 142 14.5 27.4 0.03 1.30 0.25 90 1007.2
20260506094514 14 23 8.0 29.0 0.00 1.40 0.23 91 1007.1
20260506093012 13 180 11.3 27.4 0.00 1.40 0.23 92 1007.2
20260506091510 13 115 12.9 22.5 0.00 1.40 0.23 93 1007.3
20260506090008 13 134 12.9 25.7 0.00 1.40 0.23 93 1007.0
20260506084505 13 113 9.7 24.1 0.00 1.42 0.23 94 1007.0
20260506083002 13 130 4.8 20.9 0.00 1.42 0.23 93 1007.2
20260506081500 13 124 8.0 16.1 0.00 1.42 0.23 93 1007.3
20260506073058 13 131 11.3 20.9 0.00 1.42 0.23 95 1007.5
20260506071554 13 115 11.3 22.5 0.00 1.42 0.23 95 1007.4
20260506061547 12 162 9.7 17.7 0.03 1.78 0.23 95 1007.9
20260506044544 12 174 8.0 14.5 0.00 1.96 0.20 95 1008.2
20260506043035 12 159 4.8 17.7 0.03 1.96 0.20 95 1008.4
20260506041534 12 164 9.7 16.1 0.03 1.96 0.20 95 1008.5
20260506040050 12 113 4.8 17.7 0.05 1.96 0.20 95 1008.7
20260506034529 12 146 6.4 14.5 0.15 1.96 0.20 95 1008.6
20260506033028 12 161 4.8 16.1 0.18 1.93 0.18 95 1008.7
20260506031540 12 180 4.8 9.7 0.18 1.93 0.18 96 1008.7
20260506030023 12 229 4.8 11.3 0.15 1.93 0.15 96 1008.9
20260506024522 12 311 0.0 3.2 0.05 1.83 0.05 96 1009.3
20260506023019 12 339 0.0 3.2 0.00 1.75 0.00 96 1009.5
20260506021518 12 339 0.0 1.6 0.00 1.75 0.00 96 1009.7
20260506020017 12 339 0.0 0.0 0.00 1.75 0.00 95 1009.8